Index of /20260508/WXO-DD/model_rdps/10km/06/050
Name Last modified Size Description
Parent Directory -
20260508T06Z_MSC_RDPS_AbsoluteVorticity_IsbL-0250_RLatLon0.09_PT050H.grib2 2026-05-08 08:56 735K
20260508T06Z_MSC_RDPS_AbsoluteVorticity_IsbL-0500_RLatLon0.09_PT050H.grib2 2026-05-08 08:56 562K
20260508T06Z_MSC_RDPS_AbsoluteVorticity_IsbL-0700_RLatLon0.09_PT050H.grib2 2026-05-08 08:56 622K
20260508T06Z_MSC_RDPS_AbsoluteVorticity_IsbL-0850_RLatLon0.09_PT050H.grib2 2026-05-08 08:56 785K
20260508T06Z_MSC_RDPS_AirTemp_AGL-120m_RLatLon0.09_PT050H.grib2 2026-05-08 08:56 377K
20260508T06Z_MSC_RDPS_AirTemp_AGL-2m_RLatLon0.09_PT050H.grib2 2026-05-08 08:56 623K
20260508T06Z_MSC_RDPS_AirTemp_AGL-40m_RLatLon0.09_PT050H.grib2 2026-05-08 08:56 392K
20260508T06Z_MSC_RDPS_AirTemp_AGL-80m_RLatLon0.09_PT050H.grib2 2026-05-08 08:56 383K
20260508T06Z_MSC_RDPS_AirTemp_IsbL-0001_RLatLon0.09_PT050H.grib2 2026-05-08 08:56 301K
20260508T06Z_MSC_RDPS_AirTemp_IsbL-0005_RLatLon0.09_PT050H.grib2 2026-05-08 08:56 378K
20260508T06Z_MSC_RDPS_AirTemp_IsbL-0010_RLatLon0.09_PT050H.grib2 2026-05-08 08:56 299K
20260508T06Z_MSC_RDPS_AirTemp_IsbL-0020_RLatLon0.09_PT050H.grib2 2026-05-08 08:56 317K
20260508T06Z_MSC_RDPS_AirTemp_IsbL-0030_RLatLon0.09_PT050H.grib2 2026-05-08 08:56 333K
20260508T06Z_MSC_RDPS_AirTemp_IsbL-0050_RLatLon0.09_PT050H.grib2 2026-05-08 08:56 308K
20260508T06Z_MSC_RDPS_AirTemp_IsbL-0100_RLatLon0.09_PT050H.grib2 2026-05-08 08:56 429K
20260508T06Z_MSC_RDPS_AirTemp_IsbL-0150_RLatLon0.09_PT050H.grib2 2026-05-08 08:56 412K
20260508T06Z_MSC_RDPS_AirTemp_IsbL-0175_RLatLon0.09_PT050H.grib2 2026-05-08 08:56 406K
20260508T06Z_MSC_RDPS_AirTemp_IsbL-0200_RLatLon0.09_PT050H.grib2 2026-05-08 08:56 409K
20260508T06Z_MSC_RDPS_AirTemp_IsbL-0225_RLatLon0.09_PT050H.grib2 2026-05-08 08:56 410K
20260508T06Z_MSC_RDPS_AirTemp_IsbL-0250_RLatLon0.09_PT050H.grib2 2026-05-08 08:56 422K
20260508T06Z_MSC_RDPS_AirTemp_IsbL-0275_RLatLon0.09_PT050H.grib2 2026-05-08 08:56 404K
20260508T06Z_MSC_RDPS_AirTemp_IsbL-0300_RLatLon0.09_PT050H.grib2 2026-05-08 08:56 434K
20260508T06Z_MSC_RDPS_AirTemp_IsbL-0350_RLatLon0.09_PT050H.grib2 2026-05-08 08:56 420K
20260508T06Z_MSC_RDPS_AirTemp_IsbL-0400_RLatLon0.09_PT050H.grib2 2026-05-08 08:56 425K
20260508T06Z_MSC_RDPS_AirTemp_IsbL-0450_RLatLon0.09_PT050H.grib2 2026-05-08 08:56 433K
20260508T06Z_MSC_RDPS_AirTemp_IsbL-0500_RLatLon0.09_PT050H.grib2 2026-05-08 08:56 444K
20260508T06Z_MSC_RDPS_AirTemp_IsbL-0550_RLatLon0.09_PT050H.grib2 2026-05-08 08:56 462K
20260508T06Z_MSC_RDPS_AirTemp_IsbL-0600_RLatLon0.09_PT050H.grib2 2026-05-08 08:56 479K
20260508T06Z_MSC_RDPS_AirTemp_IsbL-0650_RLatLon0.09_PT050H.grib2 2026-05-08 08:56 495K
20260508T06Z_MSC_RDPS_AirTemp_IsbL-0700_RLatLon0.09_PT050H.grib2 2026-05-08 08:56 521K
20260508T06Z_MSC_RDPS_AirTemp_IsbL-0750_RLatLon0.09_PT050H.grib2 2026-05-08 08:56 563K
20260508T06Z_MSC_RDPS_AirTemp_IsbL-0800_RLatLon0.09_PT050H.grib2 2026-05-08 08:56 581K
20260508T06Z_MSC_RDPS_AirTemp_IsbL-0850_RLatLon0.09_PT050H.grib2 2026-05-08 08:56 510K
20260508T06Z_MSC_RDPS_AirTemp_IsbL-0875_RLatLon0.09_PT050H.grib2 2026-05-08 08:56 524K
20260508T06Z_MSC_RDPS_AirTemp_IsbL-0900_RLatLon0.09_PT050H.grib2 2026-05-08 08:56 528K
20260508T06Z_MSC_RDPS_AirTemp_IsbL-0925_RLatLon0.09_PT050H.grib2 2026-05-08 08:56 527K
20260508T06Z_MSC_RDPS_AirTemp_IsbL-0950_RLatLon0.09_PT050H.grib2 2026-05-08 08:56 526K
20260508T06Z_MSC_RDPS_AirTemp_IsbL-0970_RLatLon0.09_PT050H.grib2 2026-05-08 08:56 521K
20260508T06Z_MSC_RDPS_AirTemp_IsbL-0985_RLatLon0.09_PT050H.grib2 2026-05-08 08:56 506K
20260508T06Z_MSC_RDPS_AirTemp_IsbL-1000_RLatLon0.09_PT050H.grib2 2026-05-08 08:56 492K
20260508T06Z_MSC_RDPS_AirTemp_IsbL-1015_RLatLon0.09_PT050H.grib2 2026-05-08 08:56 496K
20260508T06Z_MSC_RDPS_Albedo_Sfc_RLatLon0.09_PT050H.grib2 2026-05-08 08:56 159K
20260508T06Z_MSC_RDPS_CAPE_Sfc_RLatLon0.09_PT050H.grib2 2026-05-08 08:56 1.7M
20260508T06Z_MSC_RDPS_CIN_Sfc_RLatLon0.09_PT050H.grib2 2026-05-08 08:56 1.2M
20260508T06Z_MSC_RDPS_CloudWater_EAtm_RLatLon0.09_PT050H.grib2 2026-05-08 08:56 225K
20260508T06Z_MSC_RDPS_ConvectivePrecip-Accum_Sfc_RLatLon0.09_PT050H.grib2 2026-05-08 08:56 1.1M
20260508T06Z_MSC_RDPS_DewPointDepression_AGL-2m_RLatLon0.09_PT050H.grib2 2026-05-08 08:56 396K
20260508T06Z_MSC_RDPS_DewPointDepression_IsbL-0001_RLatLon0.09_PT050H.grib2 2026-05-08 08:56 193
20260508T06Z_MSC_RDPS_DewPointDepression_IsbL-0005_RLatLon0.09_PT050H.grib2 2026-05-08 08:56 193
20260508T06Z_MSC_RDPS_DewPointDepression_IsbL-0010_RLatLon0.09_PT050H.grib2 2026-05-08 08:56 193
20260508T06Z_MSC_RDPS_DewPointDepression_IsbL-0020_RLatLon0.09_PT050H.grib2 2026-05-08 08:56 193
20260508T06Z_MSC_RDPS_DewPointDepression_IsbL-0030_RLatLon0.09_PT050H.grib2 2026-05-08 08:56 193
20260508T06Z_MSC_RDPS_DewPointDepression_IsbL-0050_RLatLon0.09_PT050H.grib2 2026-05-08 08:56 79K
20260508T06Z_MSC_RDPS_DewPointDepression_IsbL-0100_RLatLon0.09_PT050H.grib2 2026-05-08 08:56 114K
20260508T06Z_MSC_RDPS_DewPointDepression_IsbL-0150_RLatLon0.09_PT050H.grib2 2026-05-08 08:56 146K
20260508T06Z_MSC_RDPS_DewPointDepression_IsbL-0175_RLatLon0.09_PT050H.grib2 2026-05-08 08:56 170K
20260508T06Z_MSC_RDPS_DewPointDepression_IsbL-0200_RLatLon0.09_PT050H.grib2 2026-05-08 08:56 214K
20260508T06Z_MSC_RDPS_DewPointDepression_IsbL-0225_RLatLon0.09_PT050H.grib2 2026-05-08 08:56 261K
20260508T06Z_MSC_RDPS_DewPointDepression_IsbL-0250_RLatLon0.09_PT050H.grib2 2026-05-08 08:56 305K
20260508T06Z_MSC_RDPS_DewPointDepression_IsbL-0275_RLatLon0.09_PT050H.grib2 2026-05-08 08:56 311K
20260508T06Z_MSC_RDPS_DewPointDepression_IsbL-0300_RLatLon0.09_PT050H.grib2 2026-05-08 08:56 325K
20260508T06Z_MSC_RDPS_DewPointDepression_IsbL-0350_RLatLon0.09_PT050H.grib2 2026-05-08 08:56 325K
20260508T06Z_MSC_RDPS_DewPointDepression_IsbL-0400_RLatLon0.09_PT050H.grib2 2026-05-08 08:56 334K
20260508T06Z_MSC_RDPS_DewPointDepression_IsbL-0450_RLatLon0.09_PT050H.grib2 2026-05-08 08:56 340K
20260508T06Z_MSC_RDPS_DewPointDepression_IsbL-0500_RLatLon0.09_PT050H.grib2 2026-05-08 08:56 346K
20260508T06Z_MSC_RDPS_DewPointDepression_IsbL-0550_RLatLon0.09_PT050H.grib2 2026-05-08 08:56 358K
20260508T06Z_MSC_RDPS_DewPointDepression_IsbL-0600_RLatLon0.09_PT050H.grib2 2026-05-08 08:56 369K
20260508T06Z_MSC_RDPS_DewPointDepression_IsbL-0650_RLatLon0.09_PT050H.grib2 2026-05-08 08:56 380K
20260508T06Z_MSC_RDPS_DewPointDepression_IsbL-0700_RLatLon0.09_PT050H.grib2 2026-05-08 08:56 390K
20260508T06Z_MSC_RDPS_DewPointDepression_IsbL-0750_RLatLon0.09_PT050H.grib2 2026-05-08 08:56 407K
20260508T06Z_MSC_RDPS_DewPointDepression_IsbL-0800_RLatLon0.09_PT050H.grib2 2026-05-08 08:56 446K
20260508T06Z_MSC_RDPS_DewPointDepression_IsbL-0850_RLatLon0.09_PT050H.grib2 2026-05-08 08:56 474K
20260508T06Z_MSC_RDPS_DewPointDepression_IsbL-0875_RLatLon0.09_PT050H.grib2 2026-05-08 08:56 470K
20260508T06Z_MSC_RDPS_DewPointDepression_IsbL-0900_RLatLon0.09_PT050H.grib2 2026-05-08 08:56 456K
20260508T06Z_MSC_RDPS_DewPointDepression_IsbL-0925_RLatLon0.09_PT050H.grib2 2026-05-08 08:56 443K
20260508T06Z_MSC_RDPS_DewPointDepression_IsbL-0950_RLatLon0.09_PT050H.grib2 2026-05-08 08:56 436K
20260508T06Z_MSC_RDPS_DewPointDepression_IsbL-0970_RLatLon0.09_PT050H.grib2 2026-05-08 08:56 430K
20260508T06Z_MSC_RDPS_DewPointDepression_IsbL-0985_RLatLon0.09_PT050H.grib2 2026-05-08 08:56 424K
20260508T06Z_MSC_RDPS_DewPointDepression_IsbL-1000_RLatLon0.09_PT050H.grib2 2026-05-08 08:56 419K
20260508T06Z_MSC_RDPS_DewPointDepression_IsbL-1015_RLatLon0.09_PT050H.grib2 2026-05-08 08:56 410K
20260508T06Z_MSC_RDPS_DewPoint_AGL-2m_RLatLon0.09_PT050H.grib2 2026-05-08 08:56 390K
20260508T06Z_MSC_RDPS_DownwardLongwaveRadiationFlux-Accum_Sfc_RLatLon0.09_PT050H.grib2 2026-05-08 08:56 377K
20260508T06Z_MSC_RDPS_DownwardShortwaveRadiationFlux-Accum_NTAtm_RLatLon0.09_PT050H.grib2 2026-05-08 08:56 141K
20260508T06Z_MSC_RDPS_DownwardShortwaveRadiationFlux-Accum_Sfc_RLatLon0.09_PT050H.grib2 2026-05-08 08:56 573K
20260508T06Z_MSC_RDPS_FreezingRain-Accum1h_Sfc_RLatLon0.09_PT050H.grib2 2026-05-08 08:56 57K
20260508T06Z_MSC_RDPS_FreezingRain-Accum_Sfc_RLatLon0.09_PT050H.grib2 2026-05-08 08:56 143K
20260508T06Z_MSC_RDPS_GeopotentialHeight_IsbL-0001_RLatLon0.09_PT050H.grib2 2026-05-08 08:56 314K
20260508T06Z_MSC_RDPS_GeopotentialHeight_IsbL-0005_RLatLon0.09_PT050H.grib2 2026-05-08 08:56 306K
20260508T06Z_MSC_RDPS_GeopotentialHeight_IsbL-0010_RLatLon0.09_PT050H.grib2 2026-05-08 08:56 307K
20260508T06Z_MSC_RDPS_GeopotentialHeight_IsbL-0020_RLatLon0.09_PT050H.grib2 2026-05-08 08:56 307K
20260508T06Z_MSC_RDPS_GeopotentialHeight_IsbL-0030_RLatLon0.09_PT050H.grib2 2026-05-08 08:56 404K
20260508T06Z_MSC_RDPS_GeopotentialHeight_IsbL-0050_RLatLon0.09_PT050H.grib2 2026-05-08 08:56 309K
20260508T06Z_MSC_RDPS_GeopotentialHeight_IsbL-0100_RLatLon0.09_PT050H.grib2 2026-05-08 08:56 286K
20260508T06Z_MSC_RDPS_GeopotentialHeight_IsbL-0150_RLatLon0.09_PT050H.grib2 2026-05-08 08:56 227K
20260508T06Z_MSC_RDPS_GeopotentialHeight_IsbL-0175_RLatLon0.09_PT050H.grib2 2026-05-08 08:56 229K
20260508T06Z_MSC_RDPS_GeopotentialHeight_IsbL-0200_RLatLon0.09_PT050H.grib2 2026-05-08 08:56 232K
20260508T06Z_MSC_RDPS_GeopotentialHeight_IsbL-0225_RLatLon0.09_PT050H.grib2 2026-05-08 08:56 264K
20260508T06Z_MSC_RDPS_GeopotentialHeight_IsbL-0250_RLatLon0.09_PT050H.grib2 2026-05-08 08:56 266K
20260508T06Z_MSC_RDPS_GeopotentialHeight_IsbL-0275_RLatLon0.09_PT050H.grib2 2026-05-08 08:56 265K
20260508T06Z_MSC_RDPS_GeopotentialHeight_IsbL-0300_RLatLon0.09_PT050H.grib2 2026-05-08 08:56 235K
20260508T06Z_MSC_RDPS_GeopotentialHeight_IsbL-0350_RLatLon0.09_PT050H.grib2 2026-05-08 08:56 231K
20260508T06Z_MSC_RDPS_GeopotentialHeight_IsbL-0400_RLatLon0.09_PT050H.grib2 2026-05-08 08:56 227K
20260508T06Z_MSC_RDPS_GeopotentialHeight_IsbL-0450_RLatLon0.09_PT050H.grib2 2026-05-08 08:56 296K
20260508T06Z_MSC_RDPS_GeopotentialHeight_IsbL-0500_RLatLon0.09_PT050H.grib2 2026-05-08 08:56 290K
20260508T06Z_MSC_RDPS_GeopotentialHeight_IsbL-0550_RLatLon0.09_PT050H.grib2 2026-05-08 08:56 286K
20260508T06Z_MSC_RDPS_GeopotentialHeight_IsbL-0600_RLatLon0.09_PT050H.grib2 2026-05-08 08:56 282K
20260508T06Z_MSC_RDPS_GeopotentialHeight_IsbL-0650_RLatLon0.09_PT050H.grib2 2026-05-08 08:56 252K
20260508T06Z_MSC_RDPS_GeopotentialHeight_IsbL-0700_RLatLon0.09_PT050H.grib2 2026-05-08 08:56 252K
20260508T06Z_MSC_RDPS_GeopotentialHeight_IsbL-0750_RLatLon0.09_PT050H.grib2 2026-05-08 08:56 337K
20260508T06Z_MSC_RDPS_GeopotentialHeight_IsbL-0800_RLatLon0.09_PT050H.grib2 2026-05-08 08:56 347K
20260508T06Z_MSC_RDPS_GeopotentialHeight_IsbL-0850_RLatLon0.09_PT050H.grib2 2026-05-08 08:56 358K
20260508T06Z_MSC_RDPS_GeopotentialHeight_IsbL-0875_RLatLon0.09_PT050H.grib2 2026-05-08 08:56 359K
20260508T06Z_MSC_RDPS_GeopotentialHeight_IsbL-0900_RLatLon0.09_PT050H.grib2 2026-05-08 08:56 364K
20260508T06Z_MSC_RDPS_GeopotentialHeight_IsbL-0925_RLatLon0.09_PT050H.grib2 2026-05-08 08:56 368K
20260508T06Z_MSC_RDPS_GeopotentialHeight_IsbL-0950_RLatLon0.09_PT050H.grib2 2026-05-08 08:56 371K
20260508T06Z_MSC_RDPS_GeopotentialHeight_IsbL-0970_RLatLon0.09_PT050H.grib2 2026-05-08 08:56 375K
20260508T06Z_MSC_RDPS_GeopotentialHeight_IsbL-0985_RLatLon0.09_PT050H.grib2 2026-05-08 08:56 383K
20260508T06Z_MSC_RDPS_GeopotentialHeight_IsbL-1000_RLatLon0.09_PT050H.grib2 2026-05-08 08:56 395K
20260508T06Z_MSC_RDPS_GeopotentialHeight_IsbL-1015_RLatLon0.09_PT050H.grib2 2026-05-08 08:56 410K
20260508T06Z_MSC_RDPS_HighLowPressure_MSL_RLatLon0.09_PT050H.json 2026-05-08 08:47 21K
20260508T06Z_MSC_RDPS_Humidex_Sfc_RLatLon0.09_PT050H.grib2 2026-05-08 08:56 2.4M
20260508T06Z_MSC_RDPS_IcePellets-Accum1h_Sfc_RLatLon0.09_PT050H.grib2 2026-05-08 08:56 10K
20260508T06Z_MSC_RDPS_IcePellets-Accum_Sfc_RLatLon0.09_PT050H.grib2 2026-05-08 08:56 23K
20260508T06Z_MSC_RDPS_KIndex_Sfc_RLatLon0.09_PT050H.grib2 2026-05-08 08:56 2.5M
20260508T06Z_MSC_RDPS_LatentHeatNetFlux_Sfc_RLatLon0.09_PT050H.grib2 2026-05-08 08:56 418K
20260508T06Z_MSC_RDPS_LiftedIndex-MU-VT_IsbL-0500_RLatLon0.09_PT050H.grib2 2026-05-08 08:56 2.4M
20260508T06Z_MSC_RDPS_NetLongwaveRadiationFlux-Accum_Sfc_RLatLon0.09_PT050H.grib2 2026-05-08 08:56 554K
20260508T06Z_MSC_RDPS_NetShortwaveRadiationFlux-Accum_Sfc_RLatLon0.09_PT050H.grib2 2026-05-08 08:56 572K
20260508T06Z_MSC_RDPS_PlanetaryBoundaryLayerHeight_Sfc_RLatLon0.09_PT050H.grib2 2026-05-08 08:56 1.1M
20260508T06Z_MSC_RDPS_Precip-Accum1h_Sfc_RLatLon0.09_PT050H.grib2 2026-05-08 08:56 1.2M
20260508T06Z_MSC_RDPS_Precip-Accum_Sfc_RLatLon0.09_PT050H.grib2 2026-05-08 08:56 1.9M
20260508T06Z_MSC_RDPS_PrecipRate_Sfc_RLatLon0.09_PT050H.grib2 2026-05-08 08:56 192K
20260508T06Z_MSC_RDPS_PrecipType-Instant_Sfc_RLatLon0.09_PT050H.grib2 2026-05-08 08:56 614K
20260508T06Z_MSC_RDPS_Pressure-Trend3h_Sfc_RLatLon0.09_PT050H.grib2 2026-05-08 08:56 1.2M
20260508T06Z_MSC_RDPS_Pressure_MSL_RLatLon0.09_PT050H.grib2 2026-05-08 08:56 325K
20260508T06Z_MSC_RDPS_Pressure_PVU-1.5_RLatLon0.09_PT050H.grib2 2026-05-08 08:56 2.3M
20260508T06Z_MSC_RDPS_Pressure_PVU-1_RLatLon0.09_PT050H.grib2 2026-05-08 08:56 2.4M
20260508T06Z_MSC_RDPS_Pressure_PVU-2_RLatLon0.09_PT050H.grib2 2026-05-08 08:56 2.4M
20260508T06Z_MSC_RDPS_Pressure_Sfc_RLatLon0.09_PT050H.grib2 2026-05-08 08:56 499K
20260508T06Z_MSC_RDPS_RadiativeTemp_Sfc_RLatLon0.09_PT050H.grib2 2026-05-08 08:56 390K
20260508T06Z_MSC_RDPS_Rain-Accum1h_Sfc_RLatLon0.09_PT050H.grib2 2026-05-08 08:56 578K
20260508T06Z_MSC_RDPS_Rain-Accum_Sfc_RLatLon0.09_PT050H.grib2 2026-05-08 08:56 1.7M
20260508T06Z_MSC_RDPS_RelativeHumidity_AGL-2m_RLatLon0.09_PT050H.grib2 2026-05-08 08:56 1.0M
20260508T06Z_MSC_RDPS_RelativeHumidity_IsbL-0010_RLatLon0.09_PT050H.grib2 2026-05-08 08:56 594K
20260508T06Z_MSC_RDPS_RelativeHumidity_IsbL-0020_RLatLon0.09_PT050H.grib2 2026-05-08 08:56 639K
20260508T06Z_MSC_RDPS_RelativeHumidity_IsbL-0030_RLatLon0.09_PT050H.grib2 2026-05-08 08:56 629K
20260508T06Z_MSC_RDPS_RelativeHumidity_IsbL-0050_RLatLon0.09_PT050H.grib2 2026-05-08 08:56 354K
20260508T06Z_MSC_RDPS_RelativeHumidity_IsbL-0100_RLatLon0.09_PT050H.grib2 2026-05-08 08:56 280K
20260508T06Z_MSC_RDPS_RelativeHumidity_IsbL-0150_RLatLon0.09_PT050H.grib2 2026-05-08 08:56 416K
20260508T06Z_MSC_RDPS_RelativeHumidity_IsbL-0175_RLatLon0.09_PT050H.grib2 2026-05-08 08:56 468K
20260508T06Z_MSC_RDPS_RelativeHumidity_IsbL-0200_RLatLon0.09_PT050H.grib2 2026-05-08 08:56 536K
20260508T06Z_MSC_RDPS_RelativeHumidity_IsbL-0225_RLatLon0.09_PT050H.grib2 2026-05-08 08:56 610K
20260508T06Z_MSC_RDPS_RelativeHumidity_IsbL-0250_RLatLon0.09_PT050H.grib2 2026-05-08 08:56 691K
20260508T06Z_MSC_RDPS_RelativeHumidity_IsbL-0275_RLatLon0.09_PT050H.grib2 2026-05-08 08:56 720K
20260508T06Z_MSC_RDPS_RelativeHumidity_IsbL-0300_RLatLon0.09_PT050H.grib2 2026-05-08 08:56 758K
20260508T06Z_MSC_RDPS_RelativeHumidity_IsbL-0350_RLatLon0.09_PT050H.grib2 2026-05-08 08:56 768K
20260508T06Z_MSC_RDPS_RelativeHumidity_IsbL-0400_RLatLon0.09_PT050H.grib2 2026-05-08 08:56 787K
20260508T06Z_MSC_RDPS_RelativeHumidity_IsbL-0450_RLatLon0.09_PT050H.grib2 2026-05-08 08:56 796K
20260508T06Z_MSC_RDPS_RelativeHumidity_IsbL-0500_RLatLon0.09_PT050H.grib2 2026-05-08 08:56 803K
20260508T06Z_MSC_RDPS_RelativeHumidity_IsbL-0550_RLatLon0.09_PT050H.grib2 2026-05-08 08:56 817K
20260508T06Z_MSC_RDPS_RelativeHumidity_IsbL-0600_RLatLon0.09_PT050H.grib2 2026-05-08 08:56 834K
20260508T06Z_MSC_RDPS_RelativeHumidity_IsbL-0650_RLatLon0.09_PT050H.grib2 2026-05-08 08:56 851K
20260508T06Z_MSC_RDPS_RelativeHumidity_IsbL-0700_RLatLon0.09_PT050H.grib2 2026-05-08 08:56 885K
20260508T06Z_MSC_RDPS_RelativeHumidity_IsbL-0750_RLatLon0.09_PT050H.grib2 2026-05-08 08:56 926K
20260508T06Z_MSC_RDPS_RelativeHumidity_IsbL-0800_RLatLon0.09_PT050H.grib2 2026-05-08 08:56 1.0M
20260508T06Z_MSC_RDPS_RelativeHumidity_IsbL-0850_RLatLon0.09_PT050H.grib2 2026-05-08 08:56 1.0M
20260508T06Z_MSC_RDPS_RelativeHumidity_IsbL-0875_RLatLon0.09_PT050H.grib2 2026-05-08 08:56 1.1M
20260508T06Z_MSC_RDPS_RelativeHumidity_IsbL-0900_RLatLon0.09_PT050H.grib2 2026-05-08 08:56 1.1M
20260508T06Z_MSC_RDPS_RelativeHumidity_IsbL-0925_RLatLon0.09_PT050H.grib2 2026-05-08 08:56 1.1M
20260508T06Z_MSC_RDPS_RelativeHumidity_IsbL-0950_RLatLon0.09_PT050H.grib2 2026-05-08 08:56 1.1M
20260508T06Z_MSC_RDPS_RelativeHumidity_IsbL-0970_RLatLon0.09_PT050H.grib2 2026-05-08 08:56 1.0M
20260508T06Z_MSC_RDPS_RelativeHumidity_IsbL-0985_RLatLon0.09_PT050H.grib2 2026-05-08 08:56 1.0M
20260508T06Z_MSC_RDPS_RelativeHumidity_IsbL-1000_RLatLon0.09_PT050H.grib2 2026-05-08 08:56 1.0M
20260508T06Z_MSC_RDPS_RelativeHumidity_IsbL-1015_RLatLon0.09_PT050H.grib2 2026-05-08 08:56 1.0M
20260508T06Z_MSC_RDPS_Runoff-Accum_Sfc_RLatLon0.09_PT050H.grib2 2026-05-08 08:56 36K
20260508T06Z_MSC_RDPS_SWEATIndex_Sfc_RLatLon0.09_PT050H.grib2 2026-05-08 08:56 2.4M
20260508T06Z_MSC_RDPS_SeeingIndex_EAtm_RLatLon0.09_PT050H.grib2 2026-05-08 08:56 1.0M
20260508T06Z_MSC_RDPS_SensibleHeatNetFlux_Sfc_RLatLon0.09_PT050H.grib2 2026-05-08 08:56 295K
20260508T06Z_MSC_RDPS_ShowalterIndex_IsbL-0500_RLatLon0.09_PT050H.grib2 2026-05-08 08:56 2.6M
20260508T06Z_MSC_RDPS_SkyTransparencyIndex_EAtm_RLatLon0.09_PT050H.grib2 2026-05-08 08:56 701K
20260508T06Z_MSC_RDPS_Snow-Accum1h_Sfc_RLatLon0.09_PT050H.grib2 2026-05-08 08:56 338K
20260508T06Z_MSC_RDPS_Snow-Accum_Sfc_RLatLon0.09_PT050H.grib2 2026-05-08 08:56 689K
20260508T06Z_MSC_RDPS_SnowDensity_Sfc_RLatLon0.09_PT050H.grib2 2026-05-08 08:56 170K
20260508T06Z_MSC_RDPS_SnowDepth_Sfc_RLatLon0.09_PT050H.grib2 2026-05-08 08:56 621K
20260508T06Z_MSC_RDPS_SoilTemp_DBS-0to10cm_RLatLon0.09_PT050H.grib2 2026-05-08 08:56 237K
20260508T06Z_MSC_RDPS_SoilTemp_Sfc_RLatLon0.09_PT050H.grib2 2026-05-08 08:56 265K
20260508T06Z_MSC_RDPS_SoilVolumetricIceContent_Sfc_RLatLon0.09_PT050H.grib2 2026-05-08 08:56 143K
20260508T06Z_MSC_RDPS_SoilVolumetricWaterContent_DBS-0to10cm_RLatLon0.09_PT050H.grib2 2026-05-08 08:56 291K
20260508T06Z_MSC_RDPS_SoilVolumetricWaterContent_DBS-0to1cm_RLatLon0.09_PT050H.grib2 2026-05-08 08:56 343K
20260508T06Z_MSC_RDPS_SpecificHumidity_AGL-120m_RLatLon0.09_PT050H.grib2 2026-05-08 08:56 496K
20260508T06Z_MSC_RDPS_SpecificHumidity_AGL-2m_RLatLon0.09_PT050H.grib2 2026-05-08 08:56 666K
20260508T06Z_MSC_RDPS_SpecificHumidity_AGL-40m_RLatLon0.09_PT050H.grib2 2026-05-08 08:56 501K
20260508T06Z_MSC_RDPS_SpecificHumidity_AGL-80m_RLatLon0.09_PT050H.grib2 2026-05-08 08:56 497K
20260508T06Z_MSC_RDPS_SpecificHumidity_IsbL-0001_RLatLon0.09_PT050H.grib2 2026-05-08 08:56 355K
20260508T06Z_MSC_RDPS_SpecificHumidity_IsbL-0005_RLatLon0.09_PT050H.grib2 2026-05-08 08:56 370K
20260508T06Z_MSC_RDPS_SpecificHumidity_IsbL-0010_RLatLon0.09_PT050H.grib2 2026-05-08 08:56 399K
20260508T06Z_MSC_RDPS_SpecificHumidity_IsbL-0020_RLatLon0.09_PT050H.grib2 2026-05-08 08:56 493K
20260508T06Z_MSC_RDPS_SpecificHumidity_IsbL-0030_RLatLon0.09_PT050H.grib2 2026-05-08 08:56 372K
20260508T06Z_MSC_RDPS_SpecificHumidity_IsbL-0050_RLatLon0.09_PT050H.grib2 2026-05-08 08:56 482K
20260508T06Z_MSC_RDPS_SpecificHumidity_IsbL-0100_RLatLon0.09_PT050H.grib2 2026-05-08 08:56 412K
20260508T06Z_MSC_RDPS_SpecificHumidity_IsbL-0150_RLatLon0.09_PT050H.grib2 2026-05-08 08:56 456K
20260508T06Z_MSC_RDPS_SpecificHumidity_IsbL-0175_RLatLon0.09_PT050H.grib2 2026-05-08 08:56 430K
20260508T06Z_MSC_RDPS_SpecificHumidity_IsbL-0200_RLatLon0.09_PT050H.grib2 2026-05-08 08:56 447K
20260508T06Z_MSC_RDPS_SpecificHumidity_IsbL-0225_RLatLon0.09_PT050H.grib2 2026-05-08 08:56 453K
20260508T06Z_MSC_RDPS_SpecificHumidity_IsbL-0250_RLatLon0.09_PT050H.grib2 2026-05-08 08:56 520K
20260508T06Z_MSC_RDPS_SpecificHumidity_IsbL-0275_RLatLon0.09_PT050H.grib2 2026-05-08 08:56 479K
20260508T06Z_MSC_RDPS_SpecificHumidity_IsbL-0300_RLatLon0.09_PT050H.grib2 2026-05-08 08:56 451K
20260508T06Z_MSC_RDPS_SpecificHumidity_IsbL-0350_RLatLon0.09_PT050H.grib2 2026-05-08 08:56 566K
20260508T06Z_MSC_RDPS_SpecificHumidity_IsbL-0400_RLatLon0.09_PT050H.grib2 2026-05-08 08:56 526K
20260508T06Z_MSC_RDPS_SpecificHumidity_IsbL-0450_RLatLon0.09_PT050H.grib2 2026-05-08 08:56 581K
20260508T06Z_MSC_RDPS_SpecificHumidity_IsbL-0500_RLatLon0.09_PT050H.grib2 2026-05-08 08:56 520K
20260508T06Z_MSC_RDPS_SpecificHumidity_IsbL-0550_RLatLon0.09_PT050H.grib2 2026-05-08 08:56 590K
20260508T06Z_MSC_RDPS_SpecificHumidity_IsbL-0600_RLatLon0.09_PT050H.grib2 2026-05-08 08:56 640K
20260508T06Z_MSC_RDPS_SpecificHumidity_IsbL-0650_RLatLon0.09_PT050H.grib2 2026-05-08 08:56 561K
20260508T06Z_MSC_RDPS_SpecificHumidity_IsbL-0700_RLatLon0.09_PT050H.grib2 2026-05-08 08:56 608K
20260508T06Z_MSC_RDPS_SpecificHumidity_IsbL-0750_RLatLon0.09_PT050H.grib2 2026-05-08 08:56 664K
20260508T06Z_MSC_RDPS_SpecificHumidity_IsbL-0800_RLatLon0.09_PT050H.grib2 2026-05-08 08:56 754K
20260508T06Z_MSC_RDPS_SpecificHumidity_IsbL-0850_RLatLon0.09_PT050H.grib2 2026-05-08 08:56 821K
20260508T06Z_MSC_RDPS_SpecificHumidity_IsbL-0875_RLatLon0.09_PT050H.grib2 2026-05-08 08:56 841K
20260508T06Z_MSC_RDPS_SpecificHumidity_IsbL-0900_RLatLon0.09_PT050H.grib2 2026-05-08 08:56 847K
20260508T06Z_MSC_RDPS_SpecificHumidity_IsbL-0925_RLatLon0.09_PT050H.grib2 2026-05-08 08:56 848K
20260508T06Z_MSC_RDPS_SpecificHumidity_IsbL-0950_RLatLon0.09_PT050H.grib2 2026-05-08 08:56 847K
20260508T06Z_MSC_RDPS_SpecificHumidity_IsbL-0970_RLatLon0.09_PT050H.grib2 2026-05-08 08:56 700K
20260508T06Z_MSC_RDPS_SpecificHumidity_IsbL-0985_RLatLon0.09_PT050H.grib2 2026-05-08 08:56 692K
20260508T06Z_MSC_RDPS_SpecificHumidity_IsbL-1000_RLatLon0.09_PT050H.grib2 2026-05-08 08:56 687K
20260508T06Z_MSC_RDPS_SpecificHumidity_IsbL-1015_RLatLon0.09_PT050H.grib2 2026-05-08 08:56 680K
20260508T06Z_MSC_RDPS_SpecificHumidity_Sfc_RLatLon0.09_PT050H.grib2 2026-05-08 08:56 306K
20260508T06Z_MSC_RDPS_StormRelativeHelicity_EtaL-10000_RLatLon0.09_PT050H.grib2 2026-05-08 08:56 1.1M
20260508T06Z_MSC_RDPS_StormSeverityIndex_EtaL-10000_RLatLon0.09_PT050H.grib2 2026-05-08 08:56 1.2M
20260508T06Z_MSC_RDPS_Thickness_IsbL-0850to0700_RLatLon0.09_PT050H.grib2 2026-05-08 08:56 249K
20260508T06Z_MSC_RDPS_Thickness_IsbL-1000to0500_RLatLon0.09_PT050H.grib2 2026-05-08 08:56 195K
20260508T06Z_MSC_RDPS_Thickness_IsbL-1000to0850_RLatLon0.09_PT050H.grib2 2026-05-08 08:56 260K
20260508T06Z_MSC_RDPS_TotalCloudCover_Sfc_RLatLon0.09_PT050H.grib2 2026-05-08 08:56 675K
20260508T06Z_MSC_RDPS_TotalTotalsIndex_Sfc_RLatLon0.09_PT050H.grib2 2026-05-08 08:56 2.5M
20260508T06Z_MSC_RDPS_UVIndex-ClearSky_Sfc_RLatLon0.09_PT050H.grib2 2026-05-08 08:56 111K
20260508T06Z_MSC_RDPS_UVIndex_Sfc_RLatLon0.09_PT050H.grib2 2026-05-08 08:56 195K
20260508T06Z_MSC_RDPS_UpwardLongwaveRadiationFlux_NTAtm_RLatLon0.09_PT050H.grib2 2026-05-08 08:56 487K
20260508T06Z_MSC_RDPS_UpwardShortwaveRadiationFlux_NTAtm_RLatLon0.09_PT050H.grib2 2026-05-08 08:56 159K
20260508T06Z_MSC_RDPS_VerticalVelocity_IsbL-0250_RLatLon0.09_PT050H.grib2 2026-05-08 08:56 545K
20260508T06Z_MSC_RDPS_VerticalVelocity_IsbL-0500_RLatLon0.09_PT050H.grib2 2026-05-08 08:56 537K
20260508T06Z_MSC_RDPS_VerticalVelocity_IsbL-0700_RLatLon0.09_PT050H.grib2 2026-05-08 08:56 593K
20260508T06Z_MSC_RDPS_VerticalVelocity_IsbL-0850_RLatLon0.09_PT050H.grib2 2026-05-08 08:56 714K
20260508T06Z_MSC_RDPS_VerticalWindShear_EtaL-6500_RLatLon0.09_PT050H.grib2 2026-05-08 08:56 1.2M
20260508T06Z_MSC_RDPS_WindChill_Sfc_RLatLon0.09_PT050H.grib2 2026-05-08 08:56 1.2M
20260508T06Z_MSC_RDPS_WindDir_AGL-10m_RLatLon0.09_PT050H.grib2 2026-05-08 08:56 971K
20260508T06Z_MSC_RDPS_WindDir_AGL-120m_RLatLon0.09_PT050H.grib2 2026-05-08 08:56 603K
20260508T06Z_MSC_RDPS_WindDir_AGL-40m_RLatLon0.09_PT050H.grib2 2026-05-08 08:56 637K
20260508T06Z_MSC_RDPS_WindDir_AGL-80m_RLatLon0.09_PT050H.grib2 2026-05-08 08:56 616K
20260508T06Z_MSC_RDPS_WindDir_IsbL-0001_RLatLon0.09_PT050H.grib2 2026-05-08 08:56 281K
20260508T06Z_MSC_RDPS_WindDir_IsbL-0005_RLatLon0.09_PT050H.grib2 2026-05-08 08:56 369K
20260508T06Z_MSC_RDPS_WindDir_IsbL-0010_RLatLon0.09_PT050H.grib2 2026-05-08 08:56 393K
20260508T06Z_MSC_RDPS_WindDir_IsbL-0020_RLatLon0.09_PT050H.grib2 2026-05-08 08:56 419K
20260508T06Z_MSC_RDPS_WindDir_IsbL-0030_RLatLon0.09_PT050H.grib2 2026-05-08 08:56 424K
20260508T06Z_MSC_RDPS_WindDir_IsbL-0050_RLatLon0.09_PT050H.grib2 2026-05-08 08:56 438K
20260508T06Z_MSC_RDPS_WindDir_IsbL-0100_RLatLon0.09_PT050H.grib2 2026-05-08 08:56 421K
20260508T06Z_MSC_RDPS_WindDir_IsbL-0150_RLatLon0.09_PT050H.grib2 2026-05-08 08:56 416K
20260508T06Z_MSC_RDPS_WindDir_IsbL-0175_RLatLon0.09_PT050H.grib2 2026-05-08 08:56 439K
20260508T06Z_MSC_RDPS_WindDir_IsbL-0200_RLatLon0.09_PT050H.grib2 2026-05-08 08:56 458K
20260508T06Z_MSC_RDPS_WindDir_IsbL-0225_RLatLon0.09_PT050H.grib2 2026-05-08 08:56 466K
20260508T06Z_MSC_RDPS_WindDir_IsbL-0250_RLatLon0.09_PT050H.grib2 2026-05-08 08:56 467K
20260508T06Z_MSC_RDPS_WindDir_IsbL-0275_RLatLon0.09_PT050H.grib2 2026-05-08 08:56 486K
20260508T06Z_MSC_RDPS_WindDir_IsbL-0300_RLatLon0.09_PT050H.grib2 2026-05-08 08:56 480K
20260508T06Z_MSC_RDPS_WindDir_IsbL-0350_RLatLon0.09_PT050H.grib2 2026-05-08 08:56 505K
20260508T06Z_MSC_RDPS_WindDir_IsbL-0400_RLatLon0.09_PT050H.grib2 2026-05-08 08:56 532K
20260508T06Z_MSC_RDPS_WindDir_IsbL-0450_RLatLon0.09_PT050H.grib2 2026-05-08 08:56 550K
20260508T06Z_MSC_RDPS_WindDir_IsbL-0500_RLatLon0.09_PT050H.grib2 2026-05-08 08:56 566K
20260508T06Z_MSC_RDPS_WindDir_IsbL-0550_RLatLon0.09_PT050H.grib2 2026-05-08 08:56 577K
20260508T06Z_MSC_RDPS_WindDir_IsbL-0600_RLatLon0.09_PT050H.grib2 2026-05-08 08:56 600K
20260508T06Z_MSC_RDPS_WindDir_IsbL-0650_RLatLon0.09_PT050H.grib2 2026-05-08 08:56 632K
20260508T06Z_MSC_RDPS_WindDir_IsbL-0700_RLatLon0.09_PT050H.grib2 2026-05-08 08:56 670K
20260508T06Z_MSC_RDPS_WindDir_IsbL-0750_RLatLon0.09_PT050H.grib2 2026-05-08 08:56 722K
20260508T06Z_MSC_RDPS_WindDir_IsbL-0800_RLatLon0.09_PT050H.grib2 2026-05-08 08:56 794K
20260508T06Z_MSC_RDPS_WindDir_IsbL-0850_RLatLon0.09_PT050H.grib2 2026-05-08 08:56 860K
20260508T06Z_MSC_RDPS_WindDir_IsbL-0875_RLatLon0.09_PT050H.grib2 2026-05-08 08:56 883K
20260508T06Z_MSC_RDPS_WindDir_IsbL-0900_RLatLon0.09_PT050H.grib2 2026-05-08 08:56 900K
20260508T06Z_MSC_RDPS_WindDir_IsbL-0925_RLatLon0.09_PT050H.grib2 2026-05-08 08:56 911K
20260508T06Z_MSC_RDPS_WindDir_IsbL-0950_RLatLon0.09_PT050H.grib2 2026-05-08 08:56 914K
20260508T06Z_MSC_RDPS_WindDir_IsbL-0970_RLatLon0.09_PT050H.grib2 2026-05-08 08:56 918K
20260508T06Z_MSC_RDPS_WindDir_IsbL-0985_RLatLon0.09_PT050H.grib2 2026-05-08 08:56 930K
20260508T06Z_MSC_RDPS_WindDir_IsbL-1000_RLatLon0.09_PT050H.grib2 2026-05-08 08:56 947K
20260508T06Z_MSC_RDPS_WindDir_IsbL-1015_RLatLon0.09_PT050H.grib2 2026-05-08 08:56 964K
20260508T06Z_MSC_RDPS_WindGust-Max_AGL-10m_RLatLon0.09_PT050H.grib2 2026-05-08 08:56 1.0M
20260508T06Z_MSC_RDPS_WindGust-Min_AGL-10m_RLatLon0.09_PT050H.grib2 2026-05-08 08:56 1.0M
20260508T06Z_MSC_RDPS_WindGust_AGL-10m_RLatLon0.09_PT050H.grib2 2026-05-08 08:56 1.0M
20260508T06Z_MSC_RDPS_WindSpeed_AGL-10m_RLatLon0.09_PT050H.grib2 2026-05-08 08:56 848K
20260508T06Z_MSC_RDPS_WindSpeed_AGL-120m_RLatLon0.09_PT050H.grib2 2026-05-08 08:56 546K
20260508T06Z_MSC_RDPS_WindSpeed_AGL-40m_RLatLon0.09_PT050H.grib2 2026-05-08 08:56 549K
20260508T06Z_MSC_RDPS_WindSpeed_AGL-80m_RLatLon0.09_PT050H.grib2 2026-05-08 08:56 547K
20260508T06Z_MSC_RDPS_WindSpeed_IsbL-0001_RLatLon0.09_PT050H.grib2 2026-05-08 08:56 252K
20260508T06Z_MSC_RDPS_WindSpeed_IsbL-0005_RLatLon0.09_PT050H.grib2 2026-05-08 08:56 384K
20260508T06Z_MSC_RDPS_WindSpeed_IsbL-0010_RLatLon0.09_PT050H.grib2 2026-05-08 08:56 399K
20260508T06Z_MSC_RDPS_WindSpeed_IsbL-0020_RLatLon0.09_PT050H.grib2 2026-05-08 08:56 324K
20260508T06Z_MSC_RDPS_WindSpeed_IsbL-0030_RLatLon0.09_PT050H.grib2 2026-05-08 08:56 320K
20260508T06Z_MSC_RDPS_WindSpeed_IsbL-0050_RLatLon0.09_PT050H.grib2 2026-05-08 08:56 345K
20260508T06Z_MSC_RDPS_WindSpeed_IsbL-0100_RLatLon0.09_PT050H.grib2 2026-05-08 08:56 475K
20260508T06Z_MSC_RDPS_WindSpeed_IsbL-0150_RLatLon0.09_PT050H.grib2 2026-05-08 08:56 376K
20260508T06Z_MSC_RDPS_WindSpeed_IsbL-0175_RLatLon0.09_PT050H.grib2 2026-05-08 08:56 400K
20260508T06Z_MSC_RDPS_WindSpeed_IsbL-0200_RLatLon0.09_PT050H.grib2 2026-05-08 08:56 435K
20260508T06Z_MSC_RDPS_WindSpeed_IsbL-0225_RLatLon0.09_PT050H.grib2 2026-05-08 08:56 442K
20260508T06Z_MSC_RDPS_WindSpeed_IsbL-0250_RLatLon0.09_PT050H.grib2 2026-05-08 08:56 447K
20260508T06Z_MSC_RDPS_WindSpeed_IsbL-0275_RLatLon0.09_PT050H.grib2 2026-05-08 08:56 467K
20260508T06Z_MSC_RDPS_WindSpeed_IsbL-0300_RLatLon0.09_PT050H.grib2 2026-05-08 08:56 464K
20260508T06Z_MSC_RDPS_WindSpeed_IsbL-0350_RLatLon0.09_PT050H.grib2 2026-05-08 08:56 473K
20260508T06Z_MSC_RDPS_WindSpeed_IsbL-0400_RLatLon0.09_PT050H.grib2 2026-05-08 08:56 476K
20260508T06Z_MSC_RDPS_WindSpeed_IsbL-0450_RLatLon0.09_PT050H.grib2 2026-05-08 08:56 463K
20260508T06Z_MSC_RDPS_WindSpeed_IsbL-0500_RLatLon0.09_PT050H.grib2 2026-05-08 08:56 464K
20260508T06Z_MSC_RDPS_WindSpeed_IsbL-0550_RLatLon0.09_PT050H.grib2 2026-05-08 08:56 464K
20260508T06Z_MSC_RDPS_WindSpeed_IsbL-0600_RLatLon0.09_PT050H.grib2 2026-05-08 08:56 591K
20260508T06Z_MSC_RDPS_WindSpeed_IsbL-0650_RLatLon0.09_PT050H.grib2 2026-05-08 08:56 610K
20260508T06Z_MSC_RDPS_WindSpeed_IsbL-0700_RLatLon0.09_PT050H.grib2 2026-05-08 08:56 635K
20260508T06Z_MSC_RDPS_WindSpeed_IsbL-0750_RLatLon0.09_PT050H.grib2 2026-05-08 08:56 712K
20260508T06Z_MSC_RDPS_WindSpeed_IsbL-0800_RLatLon0.09_PT050H.grib2 2026-05-08 08:56 764K
20260508T06Z_MSC_RDPS_WindSpeed_IsbL-0850_RLatLon0.09_PT050H.grib2 2026-05-08 08:56 814K
20260508T06Z_MSC_RDPS_WindSpeed_IsbL-0875_RLatLon0.09_PT050H.grib2 2026-05-08 08:56 835K
20260508T06Z_MSC_RDPS_WindSpeed_IsbL-0900_RLatLon0.09_PT050H.grib2 2026-05-08 08:56 853K
20260508T06Z_MSC_RDPS_WindSpeed_IsbL-0925_RLatLon0.09_PT050H.grib2 2026-05-08 08:56 865K
20260508T06Z_MSC_RDPS_WindSpeed_IsbL-0950_RLatLon0.09_PT050H.grib2 2026-05-08 08:56 868K
20260508T06Z_MSC_RDPS_WindSpeed_IsbL-0970_RLatLon0.09_PT050H.grib2 2026-05-08 08:56 865K
20260508T06Z_MSC_RDPS_WindSpeed_IsbL-0985_RLatLon0.09_PT050H.grib2 2026-05-08 08:56 860K
20260508T06Z_MSC_RDPS_WindSpeed_IsbL-1000_RLatLon0.09_PT050H.grib2 2026-05-08 08:56 856K
20260508T06Z_MSC_RDPS_WindSpeed_IsbL-1015_RLatLon0.09_PT050H.grib2 2026-05-08 08:56 849K
20260508T06Z_MSC_RDPS_WindU_AGL-10m_RLatLon0.09_PT050H.grib2 2026-05-08 08:56 435K
20260508T06Z_MSC_RDPS_WindU_AGL-120m_RLatLon0.09_PT050H.grib2 2026-05-08 08:56 422K
20260508T06Z_MSC_RDPS_WindU_AGL-40m_RLatLon0.09_PT050H.grib2 2026-05-08 08:56 543K
20260508T06Z_MSC_RDPS_WindU_AGL-80m_RLatLon0.09_PT050H.grib2 2026-05-08 08:56 541K
20260508T06Z_MSC_RDPS_WindU_IsbL-0001_RLatLon0.09_PT050H.grib2 2026-05-08 08:56 293K
20260508T06Z_MSC_RDPS_WindU_IsbL-0005_RLatLon0.09_PT050H.grib2 2026-05-08 08:56 286K
20260508T06Z_MSC_RDPS_WindU_IsbL-0010_RLatLon0.09_PT050H.grib2 2026-05-08 08:56 296K
20260508T06Z_MSC_RDPS_WindU_IsbL-0020_RLatLon0.09_PT050H.grib2 2026-05-08 08:56 353K
20260508T06Z_MSC_RDPS_WindU_IsbL-0030_RLatLon0.09_PT050H.grib2 2026-05-08 08:56 312K
20260508T06Z_MSC_RDPS_WindU_IsbL-0050_RLatLon0.09_PT050H.grib2 2026-05-08 08:56 340K
20260508T06Z_MSC_RDPS_WindU_IsbL-0100_RLatLon0.09_PT050H.grib2 2026-05-08 08:56 431K
20260508T06Z_MSC_RDPS_WindU_IsbL-0150_RLatLon0.09_PT050H.grib2 2026-05-08 08:56 392K
20260508T06Z_MSC_RDPS_WindU_IsbL-0175_RLatLon0.09_PT050H.grib2 2026-05-08 08:56 414K
20260508T06Z_MSC_RDPS_WindU_IsbL-0200_RLatLon0.09_PT050H.grib2 2026-05-08 08:56 429K
20260508T06Z_MSC_RDPS_WindU_IsbL-0225_RLatLon0.09_PT050H.grib2 2026-05-08 08:56 435K
20260508T06Z_MSC_RDPS_WindU_IsbL-0250_RLatLon0.09_PT050H.grib2 2026-05-08 08:56 437K
20260508T06Z_MSC_RDPS_WindU_IsbL-0275_RLatLon0.09_PT050H.grib2 2026-05-08 08:56 454K
20260508T06Z_MSC_RDPS_WindU_IsbL-0300_RLatLon0.09_PT050H.grib2 2026-05-08 08:56 450K
20260508T06Z_MSC_RDPS_WindU_IsbL-0350_RLatLon0.09_PT050H.grib2 2026-05-08 08:56 459K
20260508T06Z_MSC_RDPS_WindU_IsbL-0400_RLatLon0.09_PT050H.grib2 2026-05-08 08:56 464K
20260508T06Z_MSC_RDPS_WindU_IsbL-0450_RLatLon0.09_PT050H.grib2 2026-05-08 08:56 467K
20260508T06Z_MSC_RDPS_WindU_IsbL-0500_RLatLon0.09_PT050H.grib2 2026-05-08 08:56 470K
20260508T06Z_MSC_RDPS_WindU_IsbL-0550_RLatLon0.09_PT050H.grib2 2026-05-08 08:56 454K
20260508T06Z_MSC_RDPS_WindU_IsbL-0600_RLatLon0.09_PT050H.grib2 2026-05-08 08:56 463K
20260508T06Z_MSC_RDPS_WindU_IsbL-0650_RLatLon0.09_PT050H.grib2 2026-05-08 08:56 481K
20260508T06Z_MSC_RDPS_WindU_IsbL-0700_RLatLon0.09_PT050H.grib2 2026-05-08 08:56 502K
20260508T06Z_MSC_RDPS_WindU_IsbL-0750_RLatLon0.09_PT050H.grib2 2026-05-08 08:56 532K
20260508T06Z_MSC_RDPS_WindU_IsbL-0800_RLatLon0.09_PT050H.grib2 2026-05-08 08:56 578K
20260508T06Z_MSC_RDPS_WindU_IsbL-0850_RLatLon0.09_PT050H.grib2 2026-05-08 08:56 628K
20260508T06Z_MSC_RDPS_WindU_IsbL-0875_RLatLon0.09_PT050H.grib2 2026-05-08 08:56 645K
20260508T06Z_MSC_RDPS_WindU_IsbL-0900_RLatLon0.09_PT050H.grib2 2026-05-08 08:56 658K
20260508T06Z_MSC_RDPS_WindU_IsbL-0925_RLatLon0.09_PT050H.grib2 2026-05-08 08:56 665K
20260508T06Z_MSC_RDPS_WindU_IsbL-0950_RLatLon0.09_PT050H.grib2 2026-05-08 08:56 805K
20260508T06Z_MSC_RDPS_WindU_IsbL-0970_RLatLon0.09_PT050H.grib2 2026-05-08 08:56 799K
20260508T06Z_MSC_RDPS_WindU_IsbL-0985_RLatLon0.09_PT050H.grib2 2026-05-08 08:56 793K
20260508T06Z_MSC_RDPS_WindU_IsbL-1000_RLatLon0.09_PT050H.grib2 2026-05-08 08:56 789K
20260508T06Z_MSC_RDPS_WindU_IsbL-1015_RLatLon0.09_PT050H.grib2 2026-05-08 08:56 784K
20260508T06Z_MSC_RDPS_WindV_AGL-10m_RLatLon0.09_PT050H.grib2 2026-05-08 08:56 435K
20260508T06Z_MSC_RDPS_WindV_AGL-120m_RLatLon0.09_PT050H.grib2 2026-05-08 08:56 540K
20260508T06Z_MSC_RDPS_WindV_AGL-40m_RLatLon0.09_PT050H.grib2 2026-05-08 08:56 542K
20260508T06Z_MSC_RDPS_WindV_AGL-80m_RLatLon0.09_PT050H.grib2 2026-05-08 08:56 541K
20260508T06Z_MSC_RDPS_WindV_IsbL-0001_RLatLon0.09_PT050H.grib2 2026-05-08 08:56 246K
20260508T06Z_MSC_RDPS_WindV_IsbL-0005_RLatLon0.09_PT050H.grib2 2026-05-08 08:56 287K
20260508T06Z_MSC_RDPS_WindV_IsbL-0010_RLatLon0.09_PT050H.grib2 2026-05-08 08:56 298K
20260508T06Z_MSC_RDPS_WindV_IsbL-0020_RLatLon0.09_PT050H.grib2 2026-05-08 08:56 314K
20260508T06Z_MSC_RDPS_WindV_IsbL-0030_RLatLon0.09_PT050H.grib2 2026-05-08 08:56 312K
20260508T06Z_MSC_RDPS_WindV_IsbL-0050_RLatLon0.09_PT050H.grib2 2026-05-08 08:56 339K
20260508T06Z_MSC_RDPS_WindV_IsbL-0100_RLatLon0.09_PT050H.grib2 2026-05-08 08:56 427K
20260508T06Z_MSC_RDPS_WindV_IsbL-0150_RLatLon0.09_PT050H.grib2 2026-05-08 08:56 390K
20260508T06Z_MSC_RDPS_WindV_IsbL-0175_RLatLon0.09_PT050H.grib2 2026-05-08 08:56 414K
20260508T06Z_MSC_RDPS_WindV_IsbL-0200_RLatLon0.09_PT050H.grib2 2026-05-08 08:56 330K
20260508T06Z_MSC_RDPS_WindV_IsbL-0225_RLatLon0.09_PT050H.grib2 2026-05-08 08:56 335K
20260508T06Z_MSC_RDPS_WindV_IsbL-0250_RLatLon0.09_PT050H.grib2 2026-05-08 08:56 363K
20260508T06Z_MSC_RDPS_WindV_IsbL-0275_RLatLon0.09_PT050H.grib2 2026-05-08 08:56 378K
20260508T06Z_MSC_RDPS_WindV_IsbL-0300_RLatLon0.09_PT050H.grib2 2026-05-08 08:56 375K
20260508T06Z_MSC_RDPS_WindV_IsbL-0350_RLatLon0.09_PT050H.grib2 2026-05-08 08:56 358K
20260508T06Z_MSC_RDPS_WindV_IsbL-0400_RLatLon0.09_PT050H.grib2 2026-05-08 08:56 361K
20260508T06Z_MSC_RDPS_WindV_IsbL-0450_RLatLon0.09_PT050H.grib2 2026-05-08 08:56 363K
20260508T06Z_MSC_RDPS_WindV_IsbL-0500_RLatLon0.09_PT050H.grib2 2026-05-08 08:56 466K
20260508T06Z_MSC_RDPS_WindV_IsbL-0550_RLatLon0.09_PT050H.grib2 2026-05-08 08:56 467K
20260508T06Z_MSC_RDPS_WindV_IsbL-0600_RLatLon0.09_PT050H.grib2 2026-05-08 08:56 475K
20260508T06Z_MSC_RDPS_WindV_IsbL-0650_RLatLon0.09_PT050H.grib2 2026-05-08 08:56 492K
20260508T06Z_MSC_RDPS_WindV_IsbL-0700_RLatLon0.09_PT050H.grib2 2026-05-08 08:56 498K
20260508T06Z_MSC_RDPS_WindV_IsbL-0750_RLatLon0.09_PT050H.grib2 2026-05-08 08:56 527K
20260508T06Z_MSC_RDPS_WindV_IsbL-0800_RLatLon0.09_PT050H.grib2 2026-05-08 08:56 573K
20260508T06Z_MSC_RDPS_WindV_IsbL-0850_RLatLon0.09_PT050H.grib2 2026-05-08 08:56 623K
20260508T06Z_MSC_RDPS_WindV_IsbL-0875_RLatLon0.09_PT050H.grib2 2026-05-08 08:56 641K
20260508T06Z_MSC_RDPS_WindV_IsbL-0900_RLatLon0.09_PT050H.grib2 2026-05-08 08:56 654K
20260508T06Z_MSC_RDPS_WindV_IsbL-0925_RLatLon0.09_PT050H.grib2 2026-05-08 08:56 662K
20260508T06Z_MSC_RDPS_WindV_IsbL-0950_RLatLon0.09_PT050H.grib2 2026-05-08 08:56 662K
20260508T06Z_MSC_RDPS_WindV_IsbL-0970_RLatLon0.09_PT050H.grib2 2026-05-08 08:56 798K
20260508T06Z_MSC_RDPS_WindV_IsbL-0985_RLatLon0.09_PT050H.grib2 2026-05-08 08:56 794K
20260508T06Z_MSC_RDPS_WindV_IsbL-1000_RLatLon0.09_PT050H.grib2 2026-05-08 08:56 835K
20260508T06Z_MSC_RDPS_WindV_IsbL-1015_RLatLon0.09_PT050H.grib2 2026-05-08 08:56 830K